User: anonymous   Login
Location: Madrid
(40.4000°N, 3.6830°W)
Time: 17:31:14
(UTC+01:00)
Language:

ISS - Orbit

View from above orbital plane
View from above orbital plane
View from above satellite
View from above satellite

Ground track
Ground track

The orbit data is extracted from the following two-line orbital elements,

1 25544U 98067A   20018.52480003  .00016717  00000-0  10270-3 0  9033
2 25544  51.6407  13.9426 0004787 142.8271 217.3212 15.49555413  8650
Epoch (UTC): 18 January 2020 12:35:42
Eccentricity: 0.0004787
inclination: 51.6407°
perigee height: 415 km
apogee height: 421 km
right ascension of ascending node: 13.9426°
argument of perigee: 142.8271°
revolutions per day: 15.49555413
mean anomaly at epoch: 217.3212°
orbit number at epoch: 865

The dashed part of the orbit path shows where the satellite is in the earth's shadow,  

DLR